Temp
-4 -4 -4 -4 -4 -5 -5 -5 -5 -5 -5 -5 -5 -5 -4 -5 -5 -4 -4 -4 -4 -4 -4 -4 -4 -5 -4 -4 -5 -5 -3 -4 -5 -5 -4 -5 -5 -5 -5 -4 -4 -5 -5 -5 -6
-4 -4 -4 -4 -4 -5 -5 -5 -5 -5 -5 -5 -5 -4 -4 -4 -4 -4 -4 -4 -4 -3 -4 -5 -4 -4 -3 -4 -4 -4 -5 -6 -5 -5 -4 -5 -5 -5 -5 -4 -5 -5 -5 -5 -5
-4 -4 -4 -4 -4 -5 -5 -5 -5 -5 -5 -5 -4 -4 -4 -4 -4 -4 -4 -4 -4 -4 -5 -3 -3 -5 -4 -3 -5 -5 -6 -6 -5 -5 -4 -5 -5 -5 -5 -5 -5 -5 -5 -5 -5
-4 -4 -4 -4 -4 -5 -5 -5 -5 -5 -5 -5 -4 -4 -4 -4 -4 -4 -4 -4 -4 -4 -4 -4 -3 -4 -5 -4 -4 -5 -5 -5 -5 -4 -5 -5 -5 -5 -5 -5 -5 -5 -5 -5 -5
-4 -4 -4 -4 -4 -4 -5 -5 -5 -5 -5 -5 -4 -4 -4 -4 -4 -3 -4 -3 -3 -3 -3 -4 -3 -3 -5 -4 -3 -3 -5 -6 -5 -4 -5 -5 -5 -5 -5 -5 -5 -5 -5 -5 -4
-4 -4 -4 -4 -4 -4 -4 -5 -5 -5 -5 -5 -5 -4 -4 -4 -4 -4 -4 -4 -3 -3 -4 -4 -4 -4 -4 -4 -4 -5 -6 -5 -5 -4 -4 -5 -4 -4 -4 -4 -5 -5 -5 -4 -4
-4 -4 -4 -4 -4 -4 -4 -4 -5 -5 -5 -5 -5 -4 -3 -3 -4 -3 -4 -3 -3 -4 -4 -3 -4 -5 -5 -4 -5 -5 -5 -5 -5 -4 -4 -5 -5 -5 -5 -4 -4 -4 -4 -4 -4
-4 -4 -4 -4 -4 -4 -4 -4 -4 -5 -5 -5 -5 -4 -4 -4 -3 -4 -4 -4 -3 -4 -4 -5 -5 -5 -5 -5 -5 -6 -6 -5 -5 -4 -5 -5 -5 -5 -5 -5 -4 -4 -4 -4 -4
-4 -4 -4 -4 -4 -4 -4 -4 -4 -4 -4 -5 -5 -4 -4 -4 -3 -4 -4 -4 -4 -4 -5 -5 -5 -5 -5 -5 -5 -4 -5 -5 -5 -4 -5 -6 -5 -6 -5 -5 -4 -4 -4 -4 -4
-4 -4 -4 -4 -4 -3 -4 -4 -4 -4 -4 -4 -4 -4 -4 -4 -4 -4 -4 -4 -4 -4 -4 -4 -5 -5 -5 -4 -5 -5 -5 -5 -5 -5 -6 -5 -5 -6 -5 -4 -4 -4 -5 -4 -4
-5 -4 -4 -4 -4 -3 -4 -4 -4 -3 -3 -4 -5 -4 -4 -4 -4 -4 -5 -5 -5 -4 -5 -5 -5 -5 -4 -5 -6 -5 -6 -5 -5 -6 -6 -6 -6 -6 -6 -5 -5 -4 -5 -4 -4
-5 -4 -4 -4 -4 -4 -4 -4 -3 -4 -3 -4 -4 -4 -4 -4 -4 -5 -5 -4 -5 -5 -6 -5 -5 -5 -5 -6 -6 -5 -5 -5 -6 -5 -6 -5 -5 -6 -5 -6 -4 -5 -6 -5 -4
-5 -4 -4 -4 -4 -4 -3 -3 -3 -3 -3 -3 -4 -4 -4 -4 -4 -5 -5 -4 -4 -5 -6 -6 -6 -4 -6 -6 -5 -5 -5 -5 -5 -4 -5 -5 -6 -6 -5 -5 -5 -4 -6 -6 -6
-5 -4 -4 -4 -4 -4 -3 -3 -4 -3 -3 -3 -3 -3 -3 -4 -4 -5 -5 -4 -5 -6 -7 -5 -5 -4 -5 -6 -6 -6 -5 -6 -6 -6 -6 -5 -5 -6 -6 -5 -6 -6 -5 -7 -6
-5 -4 -4 -4 -4 -3 -3 -3 -3 -3 -3 -3 -3 -3 -3 -3 -3 -4 -4 -4 -5 -5 -5 -5 -4 -4 -5 -7 -7 -5 -6 -6 -6 -6 -5 -6 -4 -4 -6 -6 -5 -6 -6 -6 -7
-4 -4 -4 -4 -3 -3 -3 -3 -3 -4 -3 -3 -3 -4 -4 -4 -4 -4 -4 -5 -5 -5 -5 -5 -4 -5 -6 -6 -6 -7 -5 -6 -6 -6 -6 -6 -5 -6 -6 -6 -6 -5 -6 -5 -6
-4 -4 -4 -4 -4 -4 -4 -4 -4 -4 -4 -3 -4 -4 -4 -4 -4 -4 -4 -4 -5 -6 -6 -6 -6 -5 -6 -5 -6 -6 -6 -5 -7 -5 -6 -7 -6 -6 -6 -6 -4 -4 -5 -5 -5
-4 -4 -4 -4 -4 -4 -4 -4 -5 -5 -7 -5 -5 -4 -4 -4 -4 -5 -6 -5 -6 -6 -7 -8 -7 -6 -6 -7 -6 -6 -6 -7 -7 -6 -7 -7 -7 -6 -6 -6 -6 -5 -4 -4 -9
-4 -4 -4 -4 -4 -4 -4 -4 -4 -4 -5 -4 -5 -5 -5 -5 -6 -7 -7 -7 -7 -8 -7 -7 -6 -7 -6 -7 -7 -6 -5 -7 -7 -7 -7 -7 -7 -7 -7 -7 -7 -7 -7 -7 -6
-4 -4 -4 -4 -4 -4 -4 -5 -5 -4 -5 -5 -6 -6 -7 -8 -8 -8 -8 -8 -8 -8 -8 -8 -7 -6 -7 -7 -7 -7 -7 -7 -7 -7 -7 -7 -7 -7 -7 -7 -7 -8 -7 -7 -7
-3 -3 -3 -3 -4 -4 -4 -3 -3 -4 -4 -4 -5 -6 -5 -6 -7 -7 -8 -8 -8 -8 -8 -8 -8 -6 -7 -7 -8 -8 -8 -8 -8 -8 -8 -7 -7 -7 -7 -7 -8 -8 -8 -7 -8
-3 -3 -3 -3 -3 -3 -3 -4 -3 -3 -4 -4 -4 -5 -5 -6 -6 -7 -8 -8 -8 -8 -8 -8 -8 -7 -8 -8 -8 -8 -8 -8 -8 -8 -8 -8 -8 -8 -7 -8 -8 -8 -8 -10 -9
-3 -3 -3 -3 -3 -3 -3 -3 -3 -4 -4 -4 -4 -4 -4 -5 -6 -7 -7 -8 -8 -8 -8 -8 -8 -9 -8 -8 -8 -8 -8 -8 -8 -8 -8 -8 -8 -8 -8 -8 -8 -9 -9 -9 -10
-3 -3 -3 -3 -3 -3 -3 -3 -4 -4 -4 -4 -4 -5 -5 -5 -6 -6 -7 -8 -8 -8 -8 -8 -9 -9 -9 -8 -8 -8 -8 -8 -8 -8 -8 -8 -9 -9 -9 -8 -9 -9 -10 -10 -10
-3 -3 -3 -3 -3 -3 -4 -4 -4 -4 -3 -4 -5 -5 -5 -5 -6 -6 -7 -9 -9 -10 -10 -9 -8 -9 -9 -9 -9 -9 -8 -8 -9 -9 -9 -9 -9 -10 -9 -8 -9 -10 -9 -9 -9
-3 -3 -3 -3 -3 -4 -4 -4 -4 -4 -4 -5 -4 -4 -5 -5 -5 -6 -7 -8 -9 -9 -10 -9 -10 -10 -9 -9 -9 -9 -9 -9 -8 -9 -9 -9 -10 -9 -9 -8 -9 -10 -10 -10 -10
-4 -3 -4 -3 -4 -4 -3 -4 -4 -4 -4 -5 -4 -5 -5 -5 -6 -7 -7 -8 -8 -9 -10 -10 -10 -10 -10 -11 -10 -9 -9 -9 -9 -9 -8 -9 -9 -9 -9 -10 -10 -10 -10 -10 -10
Height
5890 5893 5894 5894 5894 5895 5895 5894 5894 5895 5895 5895 5896 5898 5900 5903 5906 5908 5909 5910 5909 5911 5911 5912 5913 5911 5919 5917 5922 5922 5923 5923 5921 5922 5921 5922 5924 5923 5924 5923 5924 5924 5922 5921 5919
5891 5893 5894 5895 5895 5896 5896 5896 5896 5896 5897 5898 5898 5900 5903 5905 5908 5910 5912 5911 5911 5912 5913 5913 5916 5913 5915 5919 5921 5922 5925 5924 5924 5924 5923 5925 5926 5925 5926 5925 5926 5924 5924 5923 5921
5891 5893 5895 5895 5896 5897 5898 5898 5898 5898 5898 5899 5900 5902 5904 5907 5909 5911 5912 5913 5913 5913 5914 5916 5916 5914 5885 5915 5920 5923 5923 5926 5926 5926 5926 5926 5926 5927 5927 5927 5927 5927 5926 5924 5923
5892 5893 5895 5896 5897 5898 5899 5900 5900 5900 5900 5901 5902 5903 5905 5908 5911 5912 5913 5914 5915 5916 5917 5921 5920 5917 5919 5925 5923 5924 5927 5926 5926 5927 5927 5927 5926 5927 5927 5927 5927 5926 5926 5926 5925
5892 5893 5895 5897 5898 5899 5900 5901 5901 5902 5902 5902 5903 5905 5907 5909 5911 5911 5913 5915 5916 5919 5920 5921 5921 5921 5925 5926 5927 5926 5926 5926 5926 5927 5928 5928 5928 5928 5926 5927 5927 5926 5927 5927 5927
5892 5894 5895 5897 5898 5899 5901 5902 5903 5903 5903 5903 5903 5905 5908 5910 5912 5912 5914 5915 5917 5920 5922 5922 5923 5923 5923 5925 5925 5925 5926 5927 5928 5929 5929 5929 5930 5930 5927 5928 5927 5927 5927 5927 5927
5892 5894 5896 5897 5899 5900 5902 5903 5904 5904 5904 5903 5903 5905 5908 5910 5911 5913 5915 5917 5918 5919 5921 5922 5924 5922 5920 5926 5923 5924 5928 5927 5929 5929 5930 5929 5930 5930 5928 5927 5927 5927 5926 5927 5928
5892 5894 5896 5898 5899 5901 5902 5904 5905 5905 5905 5904 5904 5905 5908 5910 5911 5913 5914 5916 5917 5919 5919 5922 5924 5924 5924 5924 5925 5926 5927 5928 5930 5929 5928 5928 5927 5929 5928 5928 5927 5927 5927 5926 5927
5892 5894 5897 5899 5900 5901 5903 5905 5906 5906 5906 5906 5907 5908 5910 5911 5912 5912 5914 5915 5917 5917 5919 5919 5921 5920 5921 5920 5925 5927 5929 5928 5928 5930 5926 5929 5928 5929 5928 5930 5928 5927 5927 5927 5927
5892 5895 5897 5900 5901 5902 5904 5905 5906 5907 5907 5908 5910 5912 5911 5912 5913 5913 5913 5915 5916 5917 5919 5922 5921 5919 5921 5923 5926 5927 5926 5924 5923 5926 5926 5928 5930 5931 5932 5931 5929 5927 5927 5927 5927
5892 5895 5898 5900 5902 5903 5905 5906 5909 5909 5909 5910 5912 5913 5913 5914 5915 5914 5915 5916 5916 5919 5920 5920 5922 5920 5922 5923 5925 5928 5925 5925 5923 5924 5926 5926 5929 5930 5929 5930 5929 5928 5929 5928 5929
5892 5896 5899 5901 5902 5904 5906 5908 5908 5910 5911 5912 5912 5917 5914 5917 5918 5917 5917 5918 5919 5921 5923 5923 5924 5925 5923 5925 5925 5927 5929 5925 5926 5926 5920 5925 5925 5930 5925 5928 5925 5923 5928 5928 5928
5893 5897 5899 5901 5903 5905 5907 5908 5909 5911 5912 5914 5914 5917 5917 5919 5920 5920 5920 5921 5921 5922 5922 5924 5925 5925 5925 5919 5921 5926 5928 5920 5926 5924 5922 5929 5928 5923 5922 5923 5918 5920 5916 5925 5926
5895 5898 5900 5902 5906 5907 5908 5910 5911 5913 5914 5918 5917 5917 5919 5920 5921 5920 5921 5922 5922 5923 5927 5928 5928 5926 5925 5919 5915 5925 5925 5924 5924 5924 5925 5927 5925 5927 5921 5925 5919 5916 5891 5917 5923
5896 5899 5901 5904 5906 5908 5911 5911 5912 5914 5917 5918 5918 5919 5920 5921 5922 5922 5920 5921 5922 5925 5929 5927 5926 5925 5923 5919 5922 5926 5927 5928 5925 5923 5920 5921 5918 5926 5921 5912 5914 5912 5914 5917 5920
5897 5900 5903 5905 5907 5909 5911 5912 5914 5917 5915 5917 5918 5919 5920 5920 5921 5921 5921 5921 5917 5921 5926 5926 5924 5925 5925 5925 5927 5925 5926 5925 5924 5923 5919 5920 5917 5919 5914 5915 5912 5911 5911 5915 5913
5899 5901 5904 5906 5909 5912 5912 5914 5916 5915 5916 5917 5918 5919 5919 5920 5919 5918 5918 5919 5920 5918 5918 5919 5923 5921 5922 5920 5923 5921 5921 5920 5921 5915 5911 5910 5913 5914 5910 5910 5910 5908 5902 5897 5883
5899 5902 5905 5907 5909 5911 5913 5914 5914 5914 5917 5916 5916 5917 5918 5918 5918 5919 5917 5918 5917 5915 5916 5918 5920 5920 5921 5918 5902 5913 5917 5919 5918 5914 5911 5911 5912 5910 5910 5908 5908 5911 5905 5865 5899
5900 5902 5904 5906 5908 5910 5913 5912 5912 5911 5913 5914 5915 5915 5914 5915 5917 5915 5916 5915 5916 5917 5916 5913 5913 5912 5913 5912 5913 5917 5917 5917 5910 5909 5911 5910 5910 5909 5908 5908 5905 5907 5900 5896 5906
5900 5902 5903 5906 5907 5910 5911 5910 5911 5910 5912 5914 5914 5913 5914 5916 5918 5917 5917 5917 5916 5914 5912 5910 5908 5909 5913 5909 5911 5910 5909 5909 5910 5905 5906 5908 5906 5903 5904 5903 5903 5901 5898 5899 5904
5900 5902 5904 5905 5907 5909 5909 5910 5910 5910 5910 5911 5911 5911 5911 5911 5912 5914 5916 5915 5909 5909 5910 5905 5902 5905 5906 5908 5907 5908 5904 5907 5906 5905 5904 5905 5901 5900 5898 5896 5896 5895 5895 5896 5899
5903 5904 5905 5906 5908 5908 5909 5910 5909 5909 5909 5909 5909 5909 5908 5907 5908 5908 5908 5905 5905 5904 5904 5899 5896 5897 5899 5902 5902 5900 5901 5902 5900 5901 5901 5900 5893 5893 5892 5892 5891 5889 5887 5887 5890
5904 5905 5906 5907 5908 5908 5908 5907 5908 5908 5907 5907 5906 5905 5904 5903 5903 5902 5903 5897 5897 5895 5896 5894 5893 5889 5892 5896 5893 5892 5893 5892 5891 5892 5893 5891 5885 5886 5886 5886 5885 5884 5884 5884 5884
5906 5906 5906 5906 5906 5906 5906 5906 5906 5906 5904 5904 5903 5901 5900 5898 5896 5896 5896 5896 5888 5886 5887 5886 5885 5883 5883 5885 5888 5881 5884 5885 5883 5882 5882 5884 5877 5875 5877 5878 5877 5877 5877 5878 5879
5906 5907 5906 5906 5905 5905 5905 5904 5904 5902 5902 5901 5899 5897 5895 5892 5891 5889 5888 5885 5883 5879 5877 5875 5873 5874 5873 5872 5874 5877 5876 5879 5878 5876 5875 5878 5872 5870 5870 5871 5868 5869 5870 5872 5872
5906 5905 5905 5904 5904 5903 5902 5901 5900 5899 5898 5897 5894 5892 5890 5886 5885 5884 5881 5879 5877 5874 5870 5868 5865 5863 5863 5865 5866 5864 5866 5866 5870 5870 5869 5871 5866 5866 5866 5863 5863 5862 5863 5863 5862
5904 5904 5903 5902 5901 5900 5899 5898 5896 5895 5894 5891 5888 5887 5884 5882 5880 5876 5874 5873 5870 5868 5866 5863 5860 5857 5855 5857 5856 5856 5860 5860 5858 5857 5856 5856 5858 5857 5857 5856 5855 5852 5848 5846 5845
Wind_Speed
3 6 2 3 6 8 7 7 6 8 12 12 15 18 16 19 19 18 14 13 11 10 11 14 10 10 14 16 8 9 9 6 4 11 8 8 6 5 5 6 8 7 9 11 11
4 6 3 4 7 8 8 9 7 7 9 12 14 16 17 16 15 12 11 9 9 11 16 12 9 10 12 13 13 11 4 7 9 7 7 7 5 3 2 4 8 10 10 11 11
5 6 4 5 9 9 9 9 9 10 10 11 13 14 13 12 11 12 8 10 14 12 17 6 8 14 19 12 12 11 5 5 4 6 4 4 3 2 1 4 6 6 7 8 9
7 6 5 6 9 10 9 7 7 8 10 10 10 12 13 12 11 7 7 8 7 8 8 4 10 4 10 6 9 6 10 7 8 6 3 2 2 2 2 1 3 5 7 7 6
8 6 6 7 8 9 9 7 5 6 6 7 7 11 11 10 8 9 11 7 4 5 9 9 12 3 2 5 7 6 14 7 7 5 4 1 1 1 1 1 2 4 5 5 3
9 7 6 7 8 8 9 6 4 4 5 4 3 10 12 10 9 9 11 10 6 4 8 11 12 13 9 12 10 8 7 1 2 4 2 1 2 4 4 2 1 2 4 4 3
11 8 7 8 8 9 9 7 4 3 4 4 1 12 14 12 11 9 8 8 6 6 8 11 14 12 9 8 16 6 1 2 2 3 6 4 5 5 7 4 1 1 1 3 4
12 9 9 8 8 9 8 7 4 3 4 5 5 14 15 11 10 10 8 8 8 7 10 11 10 10 6 11 11 4 8 4 8 2 6 6 3 3 4 8 4 3 2 1 2
14 10 10 9 9 9 8 6 5 4 6 7 9 13 11 8 9 9 8 7 7 8 13 16 14 14 12 11 9 5 8 9 3 3 8 4 7 3 5 6 5 3 3 2 2
16 11 10 9 9 10 8 6 5 7 7 7 6 7 10 9 6 6 7 6 11 13 11 10 11 10 2 8 0 1 13 4 12 6 1 2 5 10 6 4 5 2 4 4 4
16 13 12 9 8 10 8 5 2 6 8 10 7 10 12 12 8 10 11 11 13 11 9 11 7 6 4 3 8 7 13 8 3 2 3 7 8 6 7 8 3 6 3 3 5
15 14 12 10 10 11 11 6 5 8 7 9 12 5 13 10 10 8 7 6 8 6 7 6 5 6 2 2 8 8 11 13 6 4 7 13 11 17 4 12 6 8 6 4 6
16 16 12 10 11 12 11 11 11 7 9 7 10 7 7 6 6 5 1 2 3 4 13 3 7 8 5 11 6 12 15 2 1 5 10 13 9 13 14 15 15 14 11 4 4
18 15 13 12 12 10 10 10 10 9 12 7 7 7 5 3 1 1 2 4 6 8 8 9 5 2 10 8 16 14 12 8 7 10 9 10 12 16 25 20 27 24 19 6 5
17 15 13 13 12 12 8 11 9 7 5 5 5 4 3 3 4 2 5 6 6 6 7 2 4 6 10 8 13 12 7 2 4 2 18 16 20 23 23 33 28 15 6 5 6
16 15 14 13 11 11 9 8 5 3 2 3 3 4 3 5 7 8 10 10 15 11 5 9 7 8 7 8 9 14 9 9 12 16 23 18 24 16 26 29 10 5 6 16 13
16 14 13 11 10 6 6 4 1 2 5 6 2 5 8 8 12 13 15 16 12 11 13 9 8 13 19 21 11 16 25 12 19 23 27 32 27 30 28 34 24 30 27 31 21
13 12 11 10 8 6 4 4 5 2 3 10 10 9 9 13 13 11 16 16 18 18 16 15 16 19 21 23 20 9 19 17 16 13 26 28 29 26 25 30 26 19 10 8 9
11 10 9 8 7 6 6 8 10 9 10 9 9 8 15 12 12 15 14 22 17 18 20 23 29 28 27 29 26 21 18 18 22 23 21 22 23 25 32 23 23 18 36 22 14
10 10 9 7 8 7 7 9 8 8 6 7 10 11 5 7 14 18 11 20 23 17 24 28 33 33 25 28 23 14 11 21 19 26 26 20 19 26 26 22 25 15 18 9 24
11 10 9 9 8 7 8 5 4 1 6 8 12 15 17 14 17 18 15 22 30 25 19 31 37 34 25 20 10 16 16 25 22 11 18 17 24 25 26 28 24 29 26 22 23
12 12 10 10 9 8 5 3 3 4 6 9 11 13 16 21 20 23 25 22 27 29 24 34 40 37 26 18 16 19 19 19 26 23 26 24 28 28 22 23 25 33 31 16 11
11 10 10 8 6 5 6 6 5 7 8 10 12 15 18 20 20 21 27 35 37 36 34 38 37 42 37 18 23 24 26 22 24 23 25 27 32 29 25 26 27 28 27 28 25
7 6 6 6 5 4 3 5 7 8 12 12 13 17 19 20 22 22 24 30 40 42 39 39 43 47 47 39 28 33 32 34 32 30 29 23 25 21 29 33 34 35 34 33 28
3 2 0 1 3 3 5 6 10 14 9 12 15 16 19 21 22 24 23 23 27 29 32 32 34 30 31 33 37 39 37 37 37 36 32 35 32 29 33 36 38 39 39 41 43
3 2 3 4 5 6 7 10 11 15 14 15 18 17 18 23 23 20 21 23 30 31 34 37 37 38 38 28 24 31 36 42 43 41 39 36 34 42 46 48 49 51 49 50 41
6 8 8 9 9 11 11 12 13 14 16 17 20 20 21 23 21 25 25 24 27 30 32 38 41 43 43 37 32 31 26 27 30 34 42 44 50 53 52 53 43 48 50 51 36
Wind_Direction
135 140 122 95 115 121 102 104 111 98 86 89 117 131 132 133 133 138 135 136 151 146 152 140 151 157 126 89 93 114 128 105 97 87 83 64 52 46 34 42 61 51 45 42 34
153 144 129 116 127 128 110 97 97 97 94 92 110 132 139 140 140 147 133 144 148 165 156 153 167 156 122 110 109 88 58 59 36 58 49 56 48 35 26 22 41 29 33 43 41
161 147 137 124 135 140 123 98 85 83 94 103 107 128 138 145 150 146 130 142 103 115 159 193 150 157 122 118 138 114 113 55 48 35 63 42 38 40 22 12 21 33 32 37 42
164 153 146 125 137 154 142 118 84 73 78 97 118 125 143 152 146 146 147 138 121 124 139 179 147 147 111 87 155 61 73 71 60 41 77 23 357 24 107 106 1 30 31 25 25
165 160 153 130 139 160 169 150 100 63 62 73 114 136 139 151 154 161 167 157 140 115 153 160 150 52 99 152 143 119 103 28 71 74 94 53 258 50 285 50 61 36 30 25 26
171 166 156 134 142 154 165 166 143 76 53 42 105 152 137 139 152 176 181 176 181 156 163 172 173 193 163 148 97 46 66 148 96 109 106 93 322 304 285 119 50 47 24 18 28
178 171 157 135 143 146 158 163 143 91 62 31 82 155 147 141 148 166 172 182 192 135 191 186 172 189 73 169 142 127 19 135 158 114 73 358 315 292 302 299 244 195 32 26 7
179 175 157 136 144 146 156 159 129 97 80 58 91 148 142 146 149 152 169 162 168 176 177 193 206 228 210 180 147 202 207 256 15 336 76 41 5 221 266 291 275 273 274 19 13
178 176 159 136 141 151 158 151 126 110 95 92 104 140 152 153 157 169 187 195 195 189 187 184 200 226 209 194 222 227 233 240 283 281 54 353 293 269 287 271 259 238 250 279 305
175 175 155 135 139 155 164 147 133 120 109 109 128 132 140 132 159 185 197 176 158 152 162 174 203 226 178 167 166 330 298 266 201 17 222 92 12 3 314 1 258 203 267 258 264
172 166 152 135 137 152 159 145 115 118 104 103 94 116 122 117 113 136 146 163 163 150 156 156 192 256 241 65 100 161 242 232 238 355 315 2 303 322 313 331 56 76 28 301 289
166 157 150 134 132 137 142 146 126 126 108 89 94 123 112 113 100 120 150 151 143 179 158 160 182 198 288 281 222 236 273 260 189 237 116 281 317 273 254 256 185 118 33 52 51
156 152 145 137 136 135 138 132 116 115 107 100 102 104 90 105 111 117 222 315 264 324 146 119 80 87 120 189 232 312 335 23 37 249 320 293 332 309 274 267 245 204 158 61 31
148 147 144 139 133 129 125 125 115 118 110 107 94 68 80 84 106 6 288 319 294 349 77 350 29 37 305 339 21 348 29 38 47 22 326 270 284 308 309 307 282 245 207 129 356
142 139 137 136 134 126 123 123 121 108 127 86 76 91 65 17 3 164 310 296 288 312 332 325 323 324 345 334 318 320 32 22 41 276 277 280 287 297 320 331 320 311 191 253 262
142 142 142 140 137 133 137 131 124 91 36 63 14 11 348 324 324 315 323 312 310 321 301 295 308 320 290 293 279 308 289 257 280 293 276 309 309 322 345 326 310 6 223 252 268
148 150 152 155 152 161 149 131 134 356 323 310 322 296 293 298 306 308 308 298 303 301 301 302 318 287 282 291 258 273 279 282 296 308 328 335 334 312 330 321 317 282 230 232 174
157 159 164 170 172 170 182 197 227 102 293 284 302 286 288 293 293 288 302 300 303 310 316 322 300 277 278 287 287 278 264 268 278 292 298 312 315 318 315 314 317 303 244 132 338
172 178 190 196 201 202 224 235 248 245 252 299 293 296 305 307 324 297 307 312 317 320 273 271 271 274 275 289 293 286 262 276 268 264 272 288 295 300 317 320 333 313 306 328 317
163 166 166 183 177 184 198 225 258 259 256 271 275 270 259 246 288 310 301 277 286 277 298 271 271 268 290 272 281 295 305 310 303 283 272 282 313 301 305 319 316 316 328 331 313
131 138 144 153 163 176 197 231 285 303 266 270 270 274 285 262 206 229 254 272 278 281 272 284 282 278 268 273 283 294 301 291 301 312 306 308 286 298 299 303 311 302 315 308 306
119 126 134 136 152 164 179 224 251 293 289 290 285 284 273 270 272 236 224 234 253 261 252 254 267 278 289 290 228 236 246 253 267 262 262 265 280 274 283 292 296 297 304 307 316
135 144 150 147 156 193 201 208 243 270 280 284 291 285 289 295 286 271 253 250 248 251 254 255 265 274 279 276 219 237 226 235 238 245 256 259 265 277 278 277 288 291 295 294 295
137 139 154 171 184 216 238 249 263 267 282 292 292 292 294 291 287 280 271 254 264 267 268 266 262 267 272 273 248 233 229 230 240 235 236 229 262 271 271 267 271 276 283 282 280
98 111 166 195 238 273 272 282 279 287 297 281 296 297 295 290 289 289 282 266 269 271 279 283 283 278 274 259 252 249 254 242 240 242 241 231 243 259 267 267 277 283 283 287 289
344 301 294 287 282 283 289 291 290 291 305 298 296 302 299 297 307 309 297 288 276 267 264 278 282 288 292 284 275 269 256 255 255 253 251 251 260 255 255 258 269 275 280 289 294
310 299 295 298 294 292 307 300 304 308 304 297 301 301 300 311 304 297 297 292 281 280 278 275 277 282 284 286 278 271 283 271 261 257 252 257 254 262 267 268 271 271 271 264 261